Theta_e
304 306 308 310 311 312 313 312 312 311 308 307 308 309 314 312 310 315 317 314 312 317 316 318 318 316 315 315 317 314 316 317 321 337 335 340 346 345 344 346 345 344 343 341 341
305 307 310 312 313 313 313 313 312 311 308 309 309 311 315 311 314 319 320 314 316 315 316 316 317 315 314 317 317 316 314 319 318 329 331 336 346 346 346 346 346 345 342 341 341
307 309 311 313 313 314 313 313 312 311 311 312 312 314 312 314 322 326 317 317 318 316 315 318 317 316 316 318 319 317 320 319 322 329 337 342 344 345 345 345 343 345 342 340 339
310 311 313 313 314 314 314 313 312 312 313 313 314 314 312 321 326 324 322 320 316 316 315 315 316 316 317 319 318 320 319 320 320 330 337 342 342 348 345 344 341 342 340 339 339
311 313 314 314 314 314 314 313 313 315 316 315 315 314 314 314 314 323 324 321 316 315 315 317 318 316 318 317 317 318 319 319 318 330 335 337 342 341 343 344 342 341 340 339 338
313 314 314 315 315 315 315 314 315 317 317 316 315 313 321 312 320 325 316 315 314 315 315 317 317 315 318 317 317 318 318 317 320 334 336 338 338 340 344 343 342 342 341 340 336
314 315 315 315 315 315 315 314 316 317 318 316 315 316 319 315 318 322 315 315 314 314 314 315 318 318 317 318 317 318 319 317 324 330 335 337 342 342 344 342 341 342 341 340 337
315 315 315 314 315 315 315 315 316 316 318 317 314 319 320 320 322 319 318 320 318 316 316 317 318 316 317 318 316 318 317 319 319 327 335 337 343 341 341 342 342 342 341 340 334
315 314 314 313 313 314 314 316 316 318 319 319 321 323 324 324 322 321 321 320 320 321 320 320 318 316 316 316 316 315 319 320 321 319 335 331 341 341 339 341 342 342 341 339 336
314 313 312 312 312 313 315 318 315 321 319 319 322 317 319 323 322 321 322 320 318 318 316 317 313 315 312 316 317 319 320 318 320 320 327 325 336 341 339 340 341 341 340 339 338
314 313 312 311 312 312 316 318 313 310 315 312 311 319 315 318 318 319 322 320 319 314 316 314 315 316 317 317 318 319 319 319 318 318 320 320 336 341 339 340 340 340 339 339 338
313 312 311 311 311 314 314 314 315 316 313 311 311 311 313 315 316 318 321 320 317 316 315 314 314 316 316 317 318 318 318 317 316 318 319 321 334 341 340 340 340 340 339 339 339
313 313 312 312 311 314 313 317 314 315 310 313 312 313 313 313 315 316 318 315 314 314 314 313 316 317 317 317 318 317 317 317 317 317 318 320 325 343 341 340 339 339 340 340 341
313 313 313 312 311 310 314 311 312 315 313 317 320 318 315 314 317 317 318 316 314 313 313 314 314 316 316 317 316 317 317 317 318 320 319 319 318 332 342 342 341 340 340 340 341
313 313 311 311 312 309 309 307 316 313 320 325 323 319 315 316 317 317 316 314 314 314 313 314 318 319 319 318 317 318 320 317 318 318 321 319 318 317 330 339 342 342 341 339 341
312 309 307 309 310 310 308 310 314 317 320 323 319 319 318 317 317 316 316 315 314 314 316 315 317 319 318 320 320 321 320 316 315 315 318 318 320 319 331 335 339 341 341 337 340
311 309 306 305 308 308 306 313 314 319 318 322 319 317 317 317 317 318 316 316 315 317 317 317 319 319 320 321 320 319 317 318 318 318 320 319 320 321 322 325 333 338 340 338 339
311 307 304 304 304 306 313 311 318 317 320 319 318 318 318 318 317 317 315 315 315 317 316 318 317 320 322 320 321 319 317 317 320 319 321 321 323 323 330 327 326 331 337 338 338
308 305 308 307 308 308 309 311 310 315 317 317 317 319 319 319 321 319 317 316 315 316 319 318 321 321 321 323 324 324 320 318 318 321 322 321 326 330 330 328 329 330 335 338 338
308 311 312 316 311 315 312 311 313 315 316 316 318 320 320 320 321 324 322 329 328 318 316 319 320 319 324 323 323 324 322 324 318 322 323 324 335 332 332 331 331 333 334 337 341
313 312 314 316 316 314 313 313 315 316 316 317 317 317 320 320 322 324 330 330 331 330 316 317 317 318 321 323 325 323 323 322 319 321 323 325 333 328 328 329 331 331 334 341 342
312 306 315 315 315 313 317 316 317 318 316 317 316 316 320 319 321 324 332 332 331 330 328 318 316 319 319 318 323 322 323 322 323 324 327 325 329 328 328 329 332 335 335 338 341
308 311 316 317 317 316 316 319 318 319 319 318 317 317 319 318 319 324 330 330 329 331 332 329 317 318 318 318 325 328 329 327 322 322 331 331 330 329 329 330 330 331 332 333 339
310 317 315 312 312 316 318 318 319 319 319 319 317 316 317 318 319 321 326 331 331 328 332 326 318 317 318 320 327 329 329 330 326 326 327 330 332 331 330 333 341 339 332 334 336
308 315 316 317 317 318 318 319 321 322 319 319 315 316 316 318 319 320 327 327 330 327 326 324 332 331 330 330 325 325 328 329 331 330 331 331 332 332 333 343 345 344 337 336 336
311 315 316 317 317 319 319 320 323 323 320 320 321 324 317 316 316 320 324 325 326 324 325 326 332 330 332 328 331 327 327 329 333 331 330 332 334 331 337 344 346 345 341 339 340
312 314 314 315 315 317 318 321 321 322 320 320 324 323 325 322 323 319 320 319 324 322 325 326 326 330 332 334 332 327 334 334 333 332 331 334 332 334 338 344 345 345 345 345 344
Wind_Speed
18 20 22 24 26 28 30 31 34 33 27 25 24 23 20 19 15 7 6 4 9 11 11 10 5 3 2 1 3 4 3 2 3 6 5 9 6 6 3 10 3 4 6 9 27
18 20 22 25 27 29 31 32 35 32 26 26 24 21 18 17 12 8 2 12 8 13 10 9 4 3 1 2 1 4 3 6 4 4 7 8 11 12 6 10 1 5 13 26 28
18 21 23 26 28 30 32 34 34 32 26 26 23 18 15 13 3 3 5 11 9 12 6 8 6 3 2 1 3 5 5 5 6 3 8 10 9 2 14 4 11 18 18 22 25
19 22 25 28 31 33 35 36 34 28 29 27 20 13 12 4 2 2 6 11 10 10 8 7 2 4 3 3 2 1 7 4 3 11 12 9 7 6 7 7 15 18 21 20 18
20 24 27 30 33 36 38 38 36 34 30 20 13 9 4 4 7 3 8 12 11 10 7 5 3 3 1 2 2 5 4 3 9 9 21 9 5 7 6 10 10 11 15 20 18
22 25 29 31 34 37 38 39 36 33 20 11 6 4 1 3 4 4 8 11 10 12 5 5 6 5 3 3 3 3 4 7 3 6 9 12 6 4 2 10 12 14 13 15 17
23 27 30 33 35 38 39 39 39 23 12 5 2 2 3 10 4 4 9 7 10 8 4 7 3 2 2 4 3 4 7 6 4 7 4 9 1 5 10 14 15 13 11 10 11
23 27 30 33 36 38 38 34 35 17 7 3 1 1 6 3 6 9 8 7 7 9 9 9 9 4 3 1 7 5 5 4 2 8 5 5 12 5 12 16 16 15 13 11 9
23 27 30 33 35 37 36 35 21 6 6 3 1 1 8 7 3 11 13 5 6 7 8 10 4 1 5 4 5 6 1 2 2 7 6 3 2 6 10 12 14 15 13 11 10
24 27 30 32 34 35 31 20 11 6 8 3 1 3 4 1 3 6 13 13 2 2 3 2 5 3 3 4 4 3 2 4 4 1 4 5 8 11 15 14 16 15 13 11 11
23 26 30 32 33 33 25 7 7 5 7 7 7 5 8 9 9 5 12 5 3 7 1 4 4 3 4 5 3 2 2 4 5 7 8 10 7 16 18 14 13 13 13 12 14
22 25 29 32 34 18 21 6 7 8 11 9 16 12 19 1 5 3 8 5 4 3 2 4 3 6 3 2 3 3 3 6 8 3 3 3 10 17 18 22 21 18 15 16 12
22 25 29 31 26 8 17 5 22 20 4 9 6 6 5 12 8 7 7 4 3 5 3 5 6 4 2 4 3 3 4 4 8 6 2 4 4 9 15 6 14 12 16 15 17
21 23 27 32 5 24 11 24 29 7 3 7 4 7 5 7 3 9 9 6 1 8 5 4 5 6 5 6 6 5 8 7 5 2 4 4 4 7 17 21 12 15 17 16 15
20 22 25 23 18 9 14 28 27 3 4 2 2 6 3 7 5 4 8 5 7 6 6 7 1 2 3 7 6 8 3 7 5 5 1 2 3 6 9 15 19 18 22 15 15
20 22 25 16 16 19 22 26 4 4 6 6 1 2 4 1 2 3 3 5 3 5 1 7 2 3 6 3 5 7 2 4 5 3 1 7 6 6 7 23 25 20 20 17 13
22 24 27 20 6 18 20 6 4 3 5 5 3 4 3 3 2 4 5 4 6 3 3 4 3 3 4 4 1 4 5 3 4 3 6 1 5 8 4 9 21 26 24 18 14
25 29 27 27 23 17 6 4 3 3 5 5 5 3 5 1 2 3 5 5 4 4 3 2 7 3 2 4 3 3 6 5 3 3 4 3 5 5 4 8 11 16 20 18 11
27 24 20 18 11 12 4 2 7 5 5 7 7 7 8 6 3 1 6 3 7 9 7 5 4 4 3 3 3 2 4 5 3 1 2 3 7 8 4 6 8 0 11 14 12
20 12 11 3 14 13 4 5 4 3 6 4 2 3 3 5 5 5 4 5 5 5 6 2 3 3 5 3 5 6 3 1 2 3 4 5 4 5 3 3 6 7 5 6 7
7 4 4 7 15 4 4 6 4 5 4 5 2 2 3 2 2 4 5 1 6 6 4 5 5 6 3 1 2 5 3 3 3 5 5 4 6 6 7 9 10 10 7 6 7
2 3 9 17 3 0 2 5 2 3 1 5 4 8 2 2 1 3 3 3 8 3 3 3 4 3 9 7 5 5 6 7 4 5 4 4 6 3 4 8 11 8 10 10 12
1 3 5 6 2 1 4 2 2 3 4 3 4 2 2 4 3 2 4 4 6 4 3 3 2 3 10 7 3 2 2 4 3 1 6 5 5 1 7 7 6 13 7 7 10
2 2 3 2 0 5 2 3 3 4 8 6 7 4 2 3 3 2 2 0 4 3 4 3 3 4 6 3 3 5 4 3 3 2 3 4 2 2 3 13 8 9 10 9 7
1 3 2 2 1 1 2 2 5 3 4 2 3 5 6 3 3 3 1 0 4 8 4 4 1 3 6 7 4 7 9 9 2 3 2 3 5 2 3 11 8 9 12 12 10
3 0 4 3 4 2 2 3 4 5 5 5 1 3 3 7 7 5 4 4 3 3 3 3 0 2 4 4 5 4 7 6 1 2 7 5 6 2 4 10 10 10 14 14 10
3 1 3 3 4 1 2 4 5 6 5 6 2 4 1 4 5 5 4 1 2 6 2 2 3 4 5 5 7 3 3 5 4 3 6 4 5 4 9 6 8 12 14 12 16
Wind_Direction
354 354 354 352 350 349 347 346 344 344 342 339 339 338 334 322 320 285 235 209 184 157 146 144 155 161 161 295 170 122 59 264 253 135 172 164 114 148 114 137 179 202 130 168 152
352 353 352 349 348 348 345 344 343 343 340 338 336 337 334 325 321 249 218 173 153 178 156 158 147 141 83 236 178 112 135 221 212 188 182 158 144 163 135 162 28 104 95 135 147
353 350 349 346 347 345 344 342 343 340 340 338 336 338 335 330 293 264 160 161 168 166 152 157 146 138 153 182 196 178 202 194 251 172 100 159 152 173 142 191 179 158 142 149 158
350 350 348 346 345 343 343 342 341 339 333 329 331 341 334 350 148 326 178 170 159 167 156 141 117 110 141 212 227 322 248 246 206 194 152 164 148 127 185 184 175 160 150 156 168
349 348 347 345 343 341 340 341 339 334 325 323 328 348 351 358 255 295 165 173 175 178 191 146 152 138 147 221 268 196 249 323 298 193 166 160 170 142 211 143 155 153 150 163 174
346 346 344 342 341 340 339 339 337 333 324 321 330 356 55 314 309 280 189 174 176 183 183 167 179 198 212 227 157 238 254 280 225 132 146 154 161 118 202 136 158 166 165 162 176
343 343 342 341 339 339 338 338 337 335 327 326 344 47 116 240 292 232 195 206 198 197 164 228 184 46 161 313 230 267 350 350 122 140 128 108 350 202 161 161 164 171 176 181 183
341 341 341 340 339 339 337 338 336 330 326 345 47 50 248 304 328 190 213 249 214 216 231 251 261 221 182 311 9 31 44 352 325 130 203 118 208 186 174 159 174 178 185 192 195
340 340 341 341 340 338 335 336 339 6 5 354 41 68 273 303 223 233 236 239 193 223 243 267 282 122 39 89 21 9 261 282 39 200 147 94 227 182 176 176 185 191 193 194 194
338 339 340 341 341 339 338 339 343 353 358 334 274 335 284 66 315 289 217 225 316 351 16 110 49 55 39 75 191 219 10 337 282 355 175 166 225 180 180 190 197 197 198 204 201
337 338 338 339 339 339 348 10 8 351 15 246 250 264 284 295 307 243 210 133 244 53 209 3 67 191 238 197 155 128 204 261 256 172 189 202 187 184 185 198 209 204 206 206 214
334 336 337 337 338 338 1 71 78 300 299 255 248 246 248 319 314 296 171 148 128 206 52 8 256 238 238 255 190 198 271 290 290 310 148 177 212 192 186 205 203 197 207 207 205
331 335 336 337 338 359 346 80 342 353 265 296 234 222 199 154 204 254 138 133 131 173 182 173 244 68 205 267 243 215 211 230 225 328 312 97 354 160 217 249 215 212 220 214 204
327 332 334 338 350 337 318 336 339 347 7 276 257 260 154 148 231 212 173 142 105 194 168 221 267 226 243 243 158 275 201 232 261 63 263 137 274 222 203 218 215 216 220 219 209
322 327 327 335 309 316 320 330 335 111 340 272 214 143 135 154 159 237 174 79 178 186 115 242 266 65 254 229 157 232 245 215 233 209 88 298 78 262 183 217 226 220 219 213 207
317 321 320 328 303 299 326 329 339 47 251 324 357 145 148 16 47 92 137 70 144 160 154 232 273 229 222 267 191 259 306 61 54 111 1 252 156 274 185 208 220 224 221 207 195
313 311 310 302 259 304 323 352 49 166 317 328 317 332 184 194 226 148 149 163 181 129 289 318 262 268 205 287 300 90 64 345 338 1 227 259 119 231 262 232 221 215 220 203 192
311 308 307 286 282 276 324 51 195 250 267 315 322 333 73 350 251 140 116 211 259 102 98 162 321 200 54 185 228 185 154 152 228 228 252 102 242 252 232 289 234 222 220 200 169
316 316 304 298 263 206 94 117 208 217 313 336 335 54 14 340 60 180 175 253 221 166 179 153 269 293 216 218 149 288 209 191 150 46 8 260 275 311 292 356 48 197 166 188 164
324 313 287 322 163 155 90 228 247 252 328 339 19 39 31 333 45 36 53 296 327 175 122 288 329 281 308 348 242 174 197 309 13 213 243 274 261 229 273 2 81 59 67 103 132
319 348 297 169 152 54 170 219 268 273 18 354 313 299 239 94 47 14 354 335 359 323 154 159 139 273 334 215 229 16 350 355 151 162 189 238 258 217 217 184 142 135 119 125 108
357 338 103 153 75 106 170 198 313 321 91 271 234 221 198 97 87 47 91 328 326 302 46 320 149 201 232 244 213 188 228 179 162 249 199 172 266 337 225 152 127 123 126 124 125
84 258 254 192 169 245 274 278 269 285 271 279 289 184 288 141 83 63 121 265 345 68 27 343 322 20 337 349 59 163 195 201 202 97 193 152 255 2 91 99 93 114 111 105 113
89 325 306 57 246 155 189 258 254 250 259 217 249 198 196 110 34 123 77 290 340 56 44 129 83 161 196 235 320 344 313 300 122 102 198 215 263 24 103 118 108 105 108 103 88
105 247 214 277 258 162 168 251 276 263 245 226 259 201 170 135 121 151 146 360 359 354 40 86 72 348 260 248 238 244 270 285 281 250 152 235 90 354 182 138 119 111 117 108 100
150 225 338 288 307 280 88 268 246 250 217 281 297 35 212 148 166 192 170 183 207 21 49 9 320 325 286 312 13 277 279 241 275 312 69 355 69 327 101 119 126 137 128 121 114
212 254 116 296 321 84 245 288 302 297 244 226 264 127 128 212 173 184 171 38 199 152 131 101 106 20 279 331 331 332 225 264 267 204 147 166 222 145 98 87 134 135 136 138 137